This is the latest recevied weather packets stored in our database for station/object EB1GOD-1. If no packets are shown the sender has not sent any weather packets the latest 10 day(s).
| Time | Temp. | Humidity | Pressure | Rain* | Wind** | Luminosity | Snow |
|---|---|---|---|---|---|---|---|
| 1777352385 | 13.33° C | 91% | 1152.5 hPa | - | - | - | - |
| 1777351485 | 12.78° C | 94% | 1152.6 hPa | - | - | - | - |
| 1777350585 | 12.78° C | 94% | 1152.6 hPa | - | - | - | - |
| 1777349685 | 12.78° C | 92% | 1152.6 hPa | - | - | - | - |
| 1777348785 | 13.33° C | 88% | 1152.8 hPa | - | - | - | - |
| 1777347885 | 13.33° C | 88% | 1152.7 hPa | - | - | - | - |
| 1777346991 | 13.33° C | 88% | 1152.9 hPa | - | - | - | - |
| 1777346087 | 13.89° C | 88% | 1153 hPa | - | - | - | - |
| 1777345184 | 13.33° C | 88% | 1153.1 hPa | - | - | - | - |
| 1777344283 | 13.33° C | 88% | 1153.1 hPa | - | - | - | - |
| 1777343383 | 13.33° C | 88% | 1153.1 hPa | - | - | - | - |
| 1777342483 | 13.33° C | 88% | 1153.1 hPa | - | - | - | - |
| 1777341583 | 13.89° C | 88% | 1153.2 hPa | - | - | - | - |
| 1777340683 | 13.89° C | 87% | 1153.3 hPa | - | - | - | - |
| 1777339782 | 13.89° C | 88% | 1153.5 hPa | - | - | - | - |
| 1777338882 | 13.89° C | 87% | 1153.7 hPa | - | - | - | - |
| 1777337982 | 13.33° C | 89% | 1153.8 hPa | - | - | - | - |
| 1777337068 | 13.33° C | 88% | 1154 hPa | - | - | - | - |
| 1777336158 | 13.89° C | 87% | 1154.1 hPa | - | - | - | - |
| 1777335258 | 13.89° C | 88% | 1154.2 hPa | - | - | - | - |
| 1777334358 | 13.33° C | 90% | 1154.2 hPa | - | - | - | - |
| 1777333458 | 12.78° C | 91% | 1154.1 hPa | - | - | - | - |
| 1777332558 | 13.33° C | 92% | 1154.3 hPa | - | - | - | - |
| 1777331658 | 13.33° C | 90% | 1154.4 hPa | - | - | - | - |
| 1777330758 | 12.78° C | 91% | 1154.5 hPa | - | - | - | - |
* Rain since midnight (hover to see other rain measurements)
** Current wind speed in m/s (hover to see current wind gust speed)